Location: Beaver Meadows
(40.3729°N, 105.6140°W)
Time: 10:08:38
(UTC-06:00)

Iridium 67 - Visible Passes

Search period start: 01 September 2015 00:00
Search period end: 11 September 2015 00:00
Orbit: 776 x 779 km, 86.4° (Epoch: 01 September)

Date Brightness Start Highest point End Pass type
(mag) Time Alt. Az. Time Alt. Az. Time Alt. Az.
01 Sep 7.2 22:32:15 10° NNE 22:34:30 23° NNE 22:34:30 23° NNE visible
02 Sep 8.0 00:13:32 10° NNW 00:14:58 16° NW 00:14:58 16° NW visible
02 Sep 7.5 21:59:24 10° NNE 22:01:03 16° NE 22:01:03 16° NE visible
02 Sep 7.6 23:39:22 10° NNW 23:41:32 23° NNW 23:41:32 23° NNW visible
03 Sep 7.2 23:05:36 10° N 23:08:06 29° N 23:08:06 29° N visible
04 Sep 7.0 22:32:08 10° N 22:34:40 28° NNE 22:34:40 28° NNE visible
05 Sep 8.3 00:14:22 10° NW 00:15:08 12° NW 00:15:08 12° NW visible
05 Sep 7.2 21:59:01 10° NNE 22:01:15 22° NE 22:01:15 22° NE visible
05 Sep 7.8 23:39:47 10° NNW 23:41:43 20° NW 23:41:43 20° NW visible
06 Sep 7.5 21:26:26 10° NE 21:27:51 14° NE 21:27:51 14° NE visible
06 Sep 7.3 23:05:48 10° NNW 23:08:19 28° NNW 23:08:19 28° NNW visible
07 Sep 6.9 22:32:09 10° N 22:34:55 32° N 22:34:55 32° N visible
08 Sep 6.9 21:58:48 10° N 22:01:31 28° NNE 22:01:31 28° NNE visible
08 Sep 8.1 23:40:24 10° NW 23:42:00 16° NW 23:42:00 16° NW visible
09 Sep 7.2 21:25:51 10° NNE 21:28:08 20° NE 21:28:08 20° NE visible
09 Sep 7.5 23:06:06 10° NNW 23:08:37 25° NW 23:08:37 25° NW visible
10 Sep 7.5 20:53:43 10° NE 20:54:46 12° NE 20:54:46 12° NE visible
10 Sep 6.9 22:32:15 10° N 22:35:14 34° NNW 22:35:14 34° NNW visible
